Time,TemperatureF,DewpointF,PressureIn,WindDirection,WindDirectionDegrees,WindSpeedMPH,WindSpeedGustMPH,Humidity,HourlyPrecipIn,Conditions,Clouds,dailyrainin,SoftwareType,DateUTC
2014-12-18 00:04:00,37.4,35.0,30.27,NNE,28,0.0,2.0,91,0.00,,,0.00,Wunderground v.1.15,2014-12-18 06:04:00,
2014-12-18 00:09:00,37.2,34.8,30.26,NNE,28,0.0,2.0,91,0.00,,,0.01,Wunderground v.1.15,2014-12-18 06:09:00,
2014-12-18 00:15:00,37.0,34.9,30.26,NNE,28,0.0,1.0,92,0.10,,,0.02,Wunderground v.1.15,2014-12-18 06:15:00,
2014-12-18 00:22:00,36.8,34.7,30.26,NNE,28,0.0,0.0,92,0.11,,,0.03,Wunderground v.1.15,2014-12-18 06:22:00,
2014-12-18 00:28:00,36.7,34.9,30.26,NNE,28,0.0,0.0,93,0.07,,,0.04,Wunderground v.1.15,2014-12-18 06:28:00,
2014-12-18 00:33:00,36.7,34.9,30.25,NNE,28,0.0,0.0,93,0.07,,,0.04,Wunderground v.1.15,2014-12-18 06:33:00,
2014-12-18 00:39:00,36.7,35.1,30.26,NNE,28,0.0,0.0,94,0.05,,,0.05,Wunderground v.1.15,2014-12-18 06:39:00,
2014-12-18 00:46:00,36.6,35.0,30.26,NNE,28,0.0,0.0,94,0.11,,,0.06,Wunderground v.1.15,2014-12-18 06:46:00,
2014-12-18 00:52:00,36.7,35.1,30.26,NNE,28,1.0,1.0,94,0.08,,,0.07,Wunderground v.1.15,2014-12-18 06:52:00,
2014-12-18 00:57:00,36.6,35.0,30.25,NNE,28,0.0,1.0,94,0.09,,,0.08,Wunderground v.1.15,2014-12-18 06:57:00,
2014-12-18 01:02:00,36.6,35.0,30.26,NNE,28,1.0,1.0,94,0.08,,,0.08,Wunderground v.1.15,2014-12-18 07:02:00,
2014-12-18 01:07:00,36.6,35.0,30.28,NNE,28,0.0,1.0,94,0.20,,,0.10,Wunderground v.1.15,2014-12-18 07:07:00,
2014-12-18 01:13:00,36.6,35.0,30.28,NNE,28,0.0,0.0,94,0.10,,,0.11,Wunderground v.1.15,2014-12-18 07:13:00,
2014-12-18 01:19:00,36.6,35.3,30.27,NNE,28,0.0,0.0,95,0.09,,,0.11,Wunderground v.1.15,2014-12-18 07:19:00,
2014-12-18 01:25:00,36.6,35.3,30.28,NNE,28,0.0,0.0,95,0.07,,,0.12,Wunderground v.1.15,2014-12-18 07:25:00,
2014-12-18 01:31:00,36.6,35.3,30.27,NNE,28,2.0,2.0,95,0.06,,,0.12,Wunderground v.1.15,2014-12-18 07:31:00,
2014-12-18 01:37:00,36.6,35.3,30.26,NNE,28,1.0,2.0,95,0.04,,,0.12,Wunderground v.1.15,2014-12-18 07:37:00,
2014-12-18 01:43:00,36.5,35.2,30.27,NNE,28,0.0,1.0,95,0.00,,,0.13,Wunderground v.1.15,2014-12-18 07:43:00,
2014-12-18 01:49:00,36.5,35.2,30.27,NNE,28,0.0,1.0,95,0.00,,,0.13,Wunderground v.1.15,2014-12-18 07:49:00,
2014-12-18 01:55:00,36.5,35.2,30.27,NNE,28,0.0,0.0,95,0.04,,,0.14,Wunderground v.1.15,2014-12-18 07:55:00,
2014-12-18 02:01:00,36.5,35.2,30.26,NNE,28,0.0,0.0,95,0.04,,,0.14,Wunderground v.1.15,2014-12-18 08:01:00,
2014-12-18 02:06:00,36.5,35.2,30.26,NNE,28,0.0,1.0,95,0.04,,,0.15,Wunderground v.1.15,2014-12-18 08:06:00,
2014-12-18 02:11:00,36.4,35.1,30.27,NE,45,0.0,0.0,95,0.04,,,0.15,Wunderground v.1.15,2014-12-18 08:11:00,
2014-12-18 02:16:00,36.4,35.1,30.28,NE,45,0.0,0.0,95,0.04,,,0.15,Wunderground v.1.15,2014-12-18 08:16:00,
2014-12-18 02:21:00,36.5,35.5,30.27,NE,45,0.0,0.0,96,0.04,,,0.15,Wunderground v.1.15,2014-12-18 08:21:00,
2014-12-18 02:27:00,36.5,35.5,30.27,NE,45,0.0,0.0,96,0.00,,,0.15,Wunderground v.1.15,2014-12-18 08:27:00,
2014-12-18 02:32:00,36.6,35.6,30.25,NE,45,0.0,0.0,96,0.00,,,0.15,Wunderground v.1.15,2014-12-18 08:32:00,
2014-12-18 02:37:00,36.6,35.6,30.25,NE,45,0.0,1.0,96,0.00,,,0.16,Wunderground v.1.15,2014-12-18 08:37:00,
2014-12-18 02:42:00,36.5,35.5,30.24,NE,45,0.0,1.0,96,0.00,,,0.16,Wunderground v.1.15,2014-12-18 08:42:00,
2014-12-18 02:47:00,36.5,35.5,30.26,NE,45,0.0,1.0,96,0.00,,,0.16,Wunderground v.1.15,2014-12-18 08:47:00,
2014-12-18 02:52:00,36.6,35.6,30.26,NE,45,0.0,0.0,96,0.00,,,0.16,Wunderground v.1.15,2014-12-18 08:52:00,
2014-12-18 02:57:00,36.6,35.6,30.25,NE,45,0.0,0.0,96,0.00,,,0.16,Wunderground v.1.15,2014-12-18 08:57:00,
2014-12-18 03:03:00,36.7,35.7,30.25,NE,45,0.0,0.0,96,0.00,,,0.16,Wunderground v.1.15,2014-12-18 09:03:00,
2014-12-18 03:08:00,36.7,35.7,30.24,NE,45,0.0,1.0,96,0.00,,,0.16,Wunderground v.1.15,2014-12-18 09:08:00,
2014-12-18 03:13:00,36.7,35.7,30.25,NE,45,0.0,0.0,96,0.00,,,0.17,Wunderground v.1.15,2014-12-18 09:13:00,
2014-12-18 03:18:00,36.7,35.7,30.25,NE,45,0.0,0.0,96,0.00,,,0.17,Wunderground v.1.15,2014-12-18 09:18:00,
2014-12-18 03:23:00,36.7,35.7,30.24,NE,45,0.0,0.0,96,0.04,,,0.17,Wunderground v.1.15,2014-12-18 09:23:00,
2014-12-18 03:29:00,36.6,35.6,30.24,NE,45,0.0,0.0,96,0.04,,,0.18,Wunderground v.1.15,2014-12-18 09:29:00,
2014-12-18 03:34:00,36.6,35.6,30.24,NE,45,0.0,1.0,96,0.04,,,0.18,Wunderground v.1.15,2014-12-18 09:34:00,
2014-12-18 03:39:00,36.6,35.6,30.24,NE,45,0.0,1.0,96,0.04,,,0.18,Wunderground v.1.15,2014-12-18 09:39:00,
2014-12-18 03:44:00,36.7,35.7,30.24,NE,45,0.0,0.0,96,0.00,,,0.18,Wunderground v.1.15,2014-12-18 09:44:00,
2014-12-18 03:49:00,36.7,35.7,30.25,NE,45,0.0,0.0,96,0.00,,,0.18,Wunderground v.1.15,2014-12-18 09:49:00,
2014-12-18 03:54:00,36.7,35.7,30.25,NE,45,0.0,0.0,96,0.00,,,0.18,Wunderground v.1.15,2014-12-18 09:54:00,
2014-12-18 03:59:00,36.7,35.7,30.24,NE,45,0.0,0.0,96,0.00,,,0.18,Wunderground v.1.15,2014-12-18 09:59:00,
2014-12-18 04:04:00,36.7,35.7,30.24,NE,45,0.0,0.0,96,0.00,,,0.18,Wunderground v.1.15,2014-12-18 10:04:00,
2014-12-18 04:10:00,36.7,35.7,30.23,NE,45,0.0,1.0,96,0.00,,,0.18,Wunderground v.1.15,2014-12-18 10:10:00,
2014-12-18 04:15:00,36.6,35.6,30.23,NE,45,0.0,0.0,96,0.00,,,0.18,Wunderground v.1.15,2014-12-18 10:15:00,
2014-12-18 04:21:00,36.7,35.7,30.23,NE,45,0.0,0.0,96,0.00,,,0.18,Wunderground v.1.15,2014-12-18 10:21:00,
2014-12-18 04:26:00,36.7,35.7,30.22,NE,45,0.0,1.0,96,0.00,,,0.19,Wunderground v.1.15,2014-12-18 10:26:00,
2014-12-18 04:31:00,36.7,35.7,30.21,NE,45,2.0,2.0,96,0.00,,,0.19,Wunderground v.1.15,2014-12-18 10:31:00,
2014-12-18 04:36:00,36.7,35.7,30.22,NE,45,0.0,2.0,96,0.00,,,0.19,Wunderground v.1.15,2014-12-18 10:36:00,
2014-12-18 04:41:00,36.7,35.7,30.22,NE,45,0.0,1.0,96,0.00,,,0.19,Wunderground v.1.15,2014-12-18 10:41:00,
2014-12-18 04:46:00,36.7,35.7,30.21,NE,45,0.0,2.0,96,0.00,,,0.19,Wunderground v.1.15,2014-12-18 10:46:00,
2014-12-18 04:51:00,36.8,35.8,30.21,NE,45,0.0,2.0,96,0.00,,,0.19,Wunderground v.1.15,2014-12-18 10:51:00,
2014-12-18 04:57:00,36.7,35.7,30.21,NE,45,0.0,2.0,96,0.00,,,0.19,Wunderground v.1.15,2014-12-18 10:57:00,
2014-12-18 05:02:00,36.7,35.7,30.22,NE,45,0.0,0.0,96,0.00,,,0.19,Wunderground v.1.15,2014-12-18 11:02:00,
2014-12-18 05:07:00,36.7,35.7,30.22,NE,45,0.0,2.0,96,0.00,,,0.19,Wunderground v.1.15,2014-12-18 11:07:00,
2014-12-18 05:12:00,36.8,35.8,30.22,NE,45,0.0,0.0,96,0.00,,,0.19,Wunderground v.1.15,2014-12-18 11:12:00,
2014-12-18 05:17:00,36.8,35.8,30.21,NE,45,2.0,2.0,96,0.00,,,0.19,Wunderground v.1.15,2014-12-18 11:17:00,
2014-12-18 05:22:00,36.7,35.7,30.20,NE,45,0.0,2.0,96,0.00,,,0.19,Wunderground v.1.15,2014-12-18 11:22:00,
2014-12-18 05:28:00,36.8,35.8,30.21,NE,45,0.0,2.0,96,0.00,,,0.19,Wunderground v.1.15,2014-12-18 11:28:00,
2014-12-18 05:33:00,36.8,35.8,30.22,NE,45,0.0,1.0,96,0.00,,,0.19,Wunderground v.1.15,2014-12-18 11:33:00,
2014-12-18 05:38:00,36.8,35.8,30.22,NE,45,0.0,1.0,96,0.00,,,0.19,Wunderground v.1.15,2014-12-18 11:38:00,
2014-12-18 05:43:00,36.8,35.8,30.22,NE,45,0.0,0.0,96,0.00,,,0.19,Wunderground v.1.15,2014-12-18 11:43:00,
2014-12-18 05:48:00,36.9,35.9,30.23,NE,45,0.0,1.0,96,0.00,,,0.19,Wunderground v.1.15,2014-12-18 11:48:00,
2014-12-18 05:53:00,36.9,35.9,30.22,NE,45,0.0,1.0,96,0.00,,,0.19,Wunderground v.1.15,2014-12-18 11:53:00,
2014-12-18 05:58:00,37.0,36.0,30.22,NE,45,0.0,1.0,96,0.00,,,0.19,Wunderground v.1.15,2014-12-18 11:58:00,
2014-12-18 06:03:00,37.0,36.0,30.22,NE,45,0.0,0.0,96,0.00,,,0.19,Wunderground v.1.15,2014-12-18 12:03:00,
2014-12-18 06:08:00,37.0,36.0,30.22,NE,45,0.0,2.0,96,0.00,,,0.19,Wunderground v.1.15,2014-12-18 12:08:00,
2014-12-18 06:13:00,37.0,36.0,30.22,NE,45,1.0,1.0,96,0.00,,,0.19,Wunderground v.1.15,2014-12-18 12:13:00,
2014-12-18 06:18:00,36.9,35.9,30.22,NE,45,0.0,1.0,96,0.00,,,0.19,Wunderground v.1.15,2014-12-18 12:18:00,
2014-12-18 06:23:00,36.9,35.9,30.23,NE,45,0.0,0.0,96,0.00,,,0.19,Wunderground v.1.15,2014-12-18 12:23:00,
2014-12-18 06:28:00,37.0,36.0,30.23,NE,45,0.0,1.0,96,0.00,,,0.19,Wunderground v.1.15,2014-12-18 12:28:00,
2014-12-18 06:33:00,37.0,36.0,30.23,NE,45,0.0,0.0,96,0.00,,,0.19,Wunderground v.1.15,2014-12-18 12:33:00,
2014-12-18 06:38:00,37.0,36.0,30.23,NE,45,0.0,1.0,96,0.00,,,0.19,Wunderground v.1.15,2014-12-18 12:38:00,
2014-12-18 06:44:00,37.0,36.0,30.23,NE,45,0.0,0.0,96,0.00,,,0.19,Wunderground v.1.15,2014-12-18 12:44:00,
2014-12-18 06:49:00,37.1,36.1,30.23,NE,45,0.0,0.0,96,0.00,,,0.19,Wunderground v.1.15,2014-12-18 12:49:00,
2014-12-18 06:54:00,37.1,36.1,30.23,NE,45,0.0,1.0,96,0.00,,,0.19,Wunderground v.1.15,2014-12-18 12:54:00,
2014-12-18 06:59:00,37.1,36.1,30.23,NE,45,0.0,1.0,96,0.00,,,0.19,Wunderground v.1.15,2014-12-18 12:59:00,
2014-12-18 07:04:00,37.1,36.1,30.24,NE,45,0.0,0.0,96,0.00,,,0.19,Wunderground v.1.15,2014-12-18 13:04:00,
2014-12-18 07:09:00,37.1,36.1,30.24,NE,45,0.0,0.0,96,0.00,,,0.19,Wunderground v.1.15,2014-12-18 13:09:00,
2014-12-18 07:14:00,37.1,36.1,30.24,NE,45,0.0,0.0,96,0.00,,,0.19,Wunderground v.1.15,2014-12-18 13:14:00,
2014-12-18 07:20:00,37.1,36.1,30.24,NE,45,0.0,0.0,96,0.00,,,0.19,Wunderground v.1.15,2014-12-18 13:20:00,
2014-12-18 07:25:00,37.2,36.2,30.24,NE,45,0.0,0.0,96,0.00,,,0.19,Wunderground v.1.15,2014-12-18 13:25:00,
2014-12-18 07:30:00,37.2,36.2,30.25,NE,45,0.0,0.0,96,0.00,,,0.19,Wunderground v.1.15,2014-12-18 13:30:00,
2014-12-18 07:35:00,37.3,36.3,30.25,NE,45,0.0,0.0,96,0.00,,,0.19,Wunderground v.1.15,2014-12-18 13:35:00,
2014-12-18 07:40:00,37.3,36.3,30.24,NE,45,0.0,1.0,96,0.00,,,0.19,Wunderground v.1.15,2014-12-18 13:40:00,
2014-12-18 07:45:00,37.3,36.3,30.24,NE,45,0.0,1.0,96,0.00,,,0.19,Wunderground v.1.15,2014-12-18 13:45:00,
2014-12-18 07:50:00,37.4,36.4,30.24,NE,45,0.0,0.0,96,0.00,,,0.19,Wunderground v.1.15,2014-12-18 13:50:00,
2014-12-18 07:55:00,37.4,36.4,30.23,NE,45,0.0,0.0,96,0.00,,,0.19,Wunderground v.1.15,2014-12-18 13:55:00,
2014-12-18 08:00:00,37.5,36.5,30.24,NE,45,0.0,0.0,96,0.00,,,0.19,Wunderground v.1.15,2014-12-18 14:00:00,
2014-12-18 08:05:00,37.5,36.5,30.23,NE,45,1.0,1.0,96,0.00,,,0.19,Wunderground v.1.15,2014-12-18 14:05:00,
2014-12-18 08:10:00,37.5,36.5,30.23,NE,45,0.0,0.0,96,0.00,,,0.19,Wunderground v.1.15,2014-12-18 14:10:00,
2014-12-18 08:15:00,37.6,36.6,30.24,NE,45,0.0,1.0,96,0.00,,,0.19,Wunderground v.1.15,2014-12-18 14:15:00,
2014-12-18 08:21:00,37.7,36.7,30.24,NE,45,0.0,0.0,96,0.00,,,0.19,Wunderground v.1.15,2014-12-18 14:21:00,
2014-12-18 08:26:00,37.8,36.8,30.24,NE,45,0.0,0.0,96,0.00,,,0.19,Wunderground v.1.15,2014-12-18 14:26:00,
2014-12-18 08:31:00,37.9,36.9,30.24,NE,45,0.0,0.0,96,0.00,,,0.19,Wunderground v.1.15,2014-12-18 14:31:00,
2014-12-18 08:36:00,37.9,36.9,30.25,NE,45,0.0,0.0,96,0.00,,,0.19,Wunderground v.1.15,2014-12-18 14:36:00,
2014-12-18 08:41:00,37.9,36.9,30.26,NE,45,0.0,0.0,96,0.00,,,0.19,Wunderground v.1.15,2014-12-18 14:41:00,
2014-12-18 08:46:00,38.0,37.0,30.25,NE,45,0.0,0.0,96,0.00,,,0.19,Wunderground v.1.15,2014-12-18 14:46:00,
2014-12-18 08:51:00,38.1,37.1,30.25,NE,45,0.0,0.0,96,0.00,,,0.19,Wunderground v.1.15,2014-12-18 14:51:00,
2014-12-18 08:56:00,38.2,37.2,30.25,NE,45,0.0,0.0,96,0.00,,,0.19,Wunderground v.1.15,2014-12-18 14:56:00,
2014-12-18 09:01:00,38.3,37.3,30.25,NE,45,0.0,0.0,96,0.00,,,0.19,Wunderground v.1.15,2014-12-18 15:01:00,
2014-12-18 09:06:00,38.4,37.4,30.26,NE,45,0.0,0.0,96,0.00,,,0.19,Wunderground v.1.15,2014-12-18 15:06:00,
2014-12-18 09:12:00,38.4,37.4,30.26,NE,45,0.0,0.0,96,0.00,,,0.19,Wunderground v.1.15,2014-12-18 15:12:00,
2014-12-18 09:17:00,38.5,37.5,30.26,NE,45,0.0,0.0,96,0.00,,,0.19,Wunderground v.1.15,2014-12-18 15:17:00,
2014-12-18 09:22:00,38.6,37.6,30.26,NE,45,0.0,0.0,96,0.00,,,0.19,Wunderground v.1.15,2014-12-18 15:22:00,
2014-12-18 09:27:00,38.8,37.8,30.26,NE,45,0.0,0.0,96,0.00,,,0.19,Wunderground v.1.15,2014-12-18 15:27:00,
2014-12-18 09:32:00,38.8,37.8,30.26,NE,45,0.0,0.0,96,0.00,,,0.19,Wunderground v.1.15,2014-12-18 15:32:00,
2014-12-18 09:37:00,38.8,37.5,30.27,NE,45,0.0,0.0,95,0.00,,,0.19,Wunderground v.1.15,2014-12-18 15:37:00,
2014-12-18 09:42:00,38.9,37.6,30.27,NE,45,0.0,0.0,95,0.00,,,0.19,Wunderground v.1.15,2014-12-18 15:42:00,
2014-12-18 09:47:00,39.0,37.7,30.27,NE,45,0.0,0.0,95,0.00,,,0.19,Wunderground v.1.15,2014-12-18 15:47:00,
2014-12-18 09:52:00,39.1,37.8,30.27,NE,45,0.0,0.0,95,0.00,,,0.19,Wunderground v.1.15,2014-12-18 15:52:00,
2014-12-18 09:57:00,39.3,38.0,30.27,NE,45,0.0,1.0,95,0.00,,,0.19,Wunderground v.1.15,2014-12-18 15:57:00,
2014-12-18 10:03:00,39.4,38.1,30.27,NE,45,0.0,1.0,95,0.00,,,0.19,Wunderground v.1.15,2014-12-18 16:03:00,
2014-12-18 10:08:00,39.5,38.2,30.26,NE,45,1.0,2.0,95,0.00,,,0.19,Wunderground v.1.15,2014-12-18 16:08:00,
2014-12-18 10:14:00,39.6,38.0,30.26,NE,55,1.0,2.0,94,0.00,,,0.19,Wunderground v.1.15,2014-12-18 16:14:00,
2014-12-18 10:19:00,39.7,38.1,30.26,NE,54,0.0,2.0,94,0.00,,,0.19,Wunderground v.1.15,2014-12-18 16:19:00,
2014-12-18 10:25:00,39.8,38.2,30.26,NE,54,0.0,1.0,94,0.00,,,0.19,Wunderground v.1.15,2014-12-18 16:25:00,
2014-12-18 10:30:00,40.0,38.4,30.26,NE,54,0.0,0.0,94,0.00,,,0.19,Wunderground v.1.15,2014-12-18 16:30:00,
2014-12-18 10:35:00,40.0,38.1,30.26,NE,54,0.0,0.0,93,0.00,,,0.19,Wunderground v.1.15,2014-12-18 16:35:00,
2014-12-18 10:40:00,40.2,38.3,30.26,NE,54,0.0,0.0,93,0.00,,,0.19,Wunderground v.1.15,2014-12-18 16:40:00,
2014-12-18 10:45:00,40.5,38.6,30.26,NE,54,0.0,1.0,93,0.00,,,0.19,Wunderground v.1.15,2014-12-18 16:45:00,
2014-12-18 10:50:00,40.6,38.5,30.25,NE,54,1.0,1.0,92,0.00,,,0.19,Wunderground v.1.15,2014-12-18 16:50:00,
2014-12-18 10:55:00,40.8,38.7,30.25,NE,54,0.0,1.0,92,0.00,,,0.19,Wunderground v.1.15,2014-12-18 16:55:00,
2014-12-18 11:00:00,40.9,38.8,30.25,East,82,0.0,3.0,92,0.00,,,0.19,Wunderground v.1.15,2014-12-18 17:00:00,
2014-12-18 11:06:00,40.9,38.5,30.25,East,82,0.0,3.0,91,0.00,,,0.19,Wunderground v.1.15,2014-12-18 17:06:00,
2014-12-18 11:11:00,41.1,38.7,30.25,East,82,0.0,1.0,91,0.00,,,0.19,Wunderground v.1.15,2014-12-18 17:11:00,
2014-12-18 11:16:00,41.4,39.0,30.25,East,82,0.0,1.0,91,0.00,,,0.19,Wunderground v.1.15,2014-12-18 17:16:00,
2014-12-18 11:21:00,41.5,39.1,30.24,East,82,0.0,1.0,91,0.00,,,0.19,Wunderground v.1.15,2014-12-18 17:21:00,
2014-12-18 11:26:00,41.7,39.0,30.24,East,82,1.0,1.0,90,0.00,,,0.19,Wunderground v.1.15,2014-12-18 17:26:00,
2014-12-18 11:31:00,41.9,38.9,30.24,East,82,0.0,1.0,89,0.00,,,0.19,Wunderground v.1.15,2014-12-18 17:31:00,
2014-12-18 11:36:00,42.0,39.0,30.23,East,82,0.0,1.0,89,0.00,,,0.19,Wunderground v.1.15,2014-12-18 17:36:00,
2014-12-18 11:41:00,42.1,39.1,30.23,East,82,0.0,0.0,89,0.00,,,0.19,Wunderground v.1.15,2014-12-18 17:41:00,
2014-12-18 11:46:00,42.3,39.0,30.23,East,82,0.0,1.0,88,0.00,,,0.19,Wunderground v.1.15,2014-12-18 17:46:00,
2014-12-18 11:51:00,42.4,38.8,30.22,East,82,0.0,0.0,87,0.00,,,0.19,Wunderground v.1.15,2014-12-18 17:51:00,
2014-12-18 11:56:00,42.5,39.2,30.21,East,82,0.0,1.0,88,0.00,,,0.19,Wunderground v.1.15,2014-12-18 17:56:00,
2014-12-18 12:02:00,42.8,39.5,30.21,East,82,0.0,2.0,88,0.00,,,0.19,Wunderground v.1.15,2014-12-18 18:02:00,
2014-12-18 12:07:00,43.0,39.4,30.21,East,82,1.0,2.0,87,0.00,,,0.19,Wunderground v.1.15,2014-12-18 18:07:00,
2014-12-18 12:12:00,43.2,39.6,30.21,East,82,0.0,0.0,87,0.00,,,0.19,Wunderground v.1.15,2014-12-18 18:12:00,
2014-12-18 12:17:00,43.3,39.4,30.21,East,82,1.0,2.0,86,0.00,,,0.19,Wunderground v.1.15,2014-12-18 18:17:00,
2014-12-18 12:22:00,43.2,39.0,30.20,East,82,0.0,0.0,85,0.00,,,0.19,Wunderground v.1.15,2014-12-18 18:22:00,
2014-12-18 12:27:00,43.4,39.5,30.20,East,82,0.0,1.0,86,0.00,,,0.19,Wunderground v.1.15,2014-12-18 18:27:00,
2014-12-18 12:32:00,43.4,39.2,30.20,East,82,0.0,0.0,85,0.00,,,0.19,Wunderground v.1.15,2014-12-18 18:32:00,
2014-12-18 12:37:00,43.4,38.9,30.20,East,82,0.0,2.0,84,0.00,,,0.19,Wunderground v.1.15,2014-12-18 18:37:00,
2014-12-18 12:42:00,43.4,38.9,30.20,East,82,1.0,1.0,84,0.00,,,0.19,Wunderground v.1.15,2014-12-18 18:42:00,
2014-12-18 12:47:00,43.4,38.9,30.20,East,82,0.0,3.0,84,0.00,,,0.19,Wunderground v.1.15,2014-12-18 18:47:00,
2014-12-18 12:52:00,43.4,39.2,30.19,East,82,0.0,1.0,85,0.00,,,0.19,Wunderground v.1.15,2014-12-18 18:52:00,
2014-12-18 12:57:00,43.5,39.0,30.19,East,82,0.0,1.0,84,0.00,,,0.19,Wunderground v.1.15,2014-12-18 18:57:00,
2014-12-18 13:04:00,43.8,39.6,30.19,East,82,0.0,0.0,85,0.00,,,0.19,Wunderground v.1.15,2014-12-18 19:04:00,
2014-12-18 13:09:00,44.0,39.2,30.19,East,82,0.0,0.0,83,0.00,,,0.19,Wunderground v.1.15,2014-12-18 19:09:00,
2014-12-18 13:15:00,44.1,39.6,30.19,East,82,0.0,0.0,84,0.00,,,0.19,Wunderground v.1.15,2014-12-18 19:15:00,
2014-12-18 13:20:00,44.3,39.5,30.19,East,82,0.0,0.0,83,0.00,,,0.19,Wunderground v.1.15,2014-12-18 19:20:00,
2014-12-18 13:25:00,44.4,39.6,30.19,East,82,0.0,0.0,83,0.00,,,0.19,Wunderground v.1.15,2014-12-18 19:25:00,
2014-12-18 13:30:00,44.5,39.0,30.19,East,82,0.0,0.0,81,0.00,,,0.19,Wunderground v.1.15,2014-12-18 19:30:00,
2014-12-18 13:35:00,44.5,38.7,30.18,East,82,0.0,1.0,80,0.00,,,0.19,Wunderground v.1.15,2014-12-18 19:35:00,
2014-12-18 13:40:00,44.5,39.0,30.18,East,82,0.0,0.0,81,0.00,,,0.19,Wunderground v.1.15,2014-12-18 19:40:00,
2014-12-18 13:45:00,44.4,38.9,30.18,East,82,0.0,0.0,81,0.00,,,0.20,Wunderground v.1.15,2014-12-18 19:45:00,
2014-12-18 13:51:00,44.5,39.0,30.18,East,82,0.0,0.0,81,0.00,,,0.20,Wunderground v.1.15,2014-12-18 19:51:00,
2014-12-18 13:56:00,44.4,38.9,30.18,East,82,0.0,0.0,81,0.00,,,0.20,Wunderground v.1.15,2014-12-18 19:56:00,
2014-12-18 14:01:00,44.5,39.0,30.18,East,82,0.0,0.0,81,0.00,,,0.20,Wunderground v.1.15,2014-12-18 20:01:00,
2014-12-18 14:06:00,44.5,38.7,30.18,East,82,0.0,0.0,80,0.00,,,0.20,Wunderground v.1.15,2014-12-18 20:06:00,
2014-12-18 14:11:00,44.6,38.8,30.18,East,82,0.0,0.0,80,0.00,,,0.20,Wunderground v.1.15,2014-12-18 20:11:00,
2014-12-18 14:17:00,44.7,38.9,30.17,East,82,0.0,0.0,80,0.00,,,0.20,Wunderground v.1.15,2014-12-18 20:17:00,
2014-12-18 14:22:00,44.8,39.0,30.17,East,82,0.0,1.0,80,0.00,,,0.20,Wunderground v.1.15,2014-12-18 20:22:00,
2014-12-18 14:27:00,44.9,39.1,30.17,East,82,0.0,1.0,80,0.00,,,0.20,Wunderground v.1.15,2014-12-18 20:27:00,
2014-12-18 14:32:00,45.0,39.2,30.17,East,82,0.0,0.0,80,0.00,,,0.20,Wunderground v.1.15,2014-12-18 20:32:00,
2014-12-18 14:38:00,45.0,39.2,30.17,East,82,0.0,0.0,80,0.00,,,0.20,Wunderground v.1.15,2014-12-18 20:38:00,
2014-12-18 14:43:00,45.0,38.9,30.17,East,82,0.0,0.0,79,0.00,,,0.20,Wunderground v.1.15,2014-12-18 20:43:00,
2014-12-18 14:48:00,45.1,39.0,30.17,East,82,0.0,0.0,79,0.00,,,0.20,Wunderground v.1.15,2014-12-18 20:48:00,
2014-12-18 14:53:00,45.1,39.0,30.18,East,82,0.0,0.0,79,0.00,,,0.20,Wunderground v.1.15,2014-12-18 20:53:00,
2014-12-18 14:59:00,45.1,39.0,30.18,East,82,0.0,1.0,79,0.00,,,0.20,Wunderground v.1.15,2014-12-18 20:59:00,
2014-12-18 15:04:00,45.1,39.0,30.18,East,82,0.0,0.0,79,0.00,,,0.20,Wunderground v.1.15,2014-12-18 21:04:00,
2014-12-18 15:09:00,45.1,39.3,30.18,East,82,0.0,0.0,80,0.00,,,0.20,Wunderground v.1.15,2014-12-18 21:09:00,
2014-12-18 15:14:00,45.2,39.4,30.18,East,82,0.0,1.0,80,0.00,,,0.20,Wunderground v.1.15,2014-12-18 21:14:00,
2014-12-18 15:19:00,45.1,38.6,30.17,East,82,0.0,1.0,78,0.00,,,0.20,Wunderground v.1.15,2014-12-18 21:19:00,
2014-12-18 15:24:00,45.1,38.6,30.18,East,82,0.0,0.0,78,0.00,,,0.20,Wunderground v.1.15,2014-12-18 21:24:00,
2014-12-18 15:29:00,45.1,38.6,30.18,East,82,0.0,0.0,78,0.00,,,0.20,Wunderground v.1.15,2014-12-18 21:29:00,
2014-12-18 15:35:00,45.1,39.0,30.18,East,82,0.0,0.0,79,0.00,,,0.20,Wunderground v.1.15,2014-12-18 21:35:00,
2014-12-18 15:40:00,45.0,38.2,30.18,East,82,0.0,0.0,77,0.00,,,0.20,Wunderground v.1.15,2014-12-18 21:40:00,
2014-12-18 15:45:00,44.9,38.5,30.18,East,82,0.0,0.0,78,0.00,,,0.20,Wunderground v.1.15,2014-12-18 21:45:00,
2014-12-18 15:50:00,44.9,38.5,30.18,East,82,0.0,0.0,78,0.00,,,0.20,Wunderground v.1.15,2014-12-18 21:50:00,
2014-12-18 15:56:00,45.0,38.9,30.18,East,82,0.0,0.0,79,0.00,,,0.20,Wunderground v.1.15,2014-12-18 21:56:00,
2014-12-18 16:01:00,45.0,38.9,30.18,East,82,0.0,0.0,79,0.00,,,0.20,Wunderground v.1.15,2014-12-18 22:01:00,
2014-12-18 16:06:00,44.9,38.8,30.18,East,82,0.0,0.0,79,0.00,,,0.20,Wunderground v.1.15,2014-12-18 22:06:00,
2014-12-18 16:11:00,44.8,38.7,30.18,East,82,0.0,0.0,79,0.00,,,0.20,Wunderground v.1.15,2014-12-18 22:11:00,
2014-12-18 16:16:00,44.8,39.0,30.18,East,82,0.0,0.0,80,0.00,,,0.20,Wunderground v.1.15,2014-12-18 22:16:00,
2014-12-18 16:21:00,44.7,38.6,30.18,East,82,0.0,0.0,79,0.00,,,0.20,Wunderground v.1.15,2014-12-18 22:21:00,
2014-12-18 16:26:00,44.7,38.9,30.18,East,82,0.0,0.0,80,0.00,,,0.20,Wunderground v.1.15,2014-12-18 22:26:00,
2014-12-18 16:31:00,44.7,38.9,30.18,East,82,0.0,0.0,80,0.00,,,0.20,Wunderground v.1.15,2014-12-18 22:31:00,
2014-12-18 16:37:00,44.7,39.2,30.18,East,82,0.0,0.0,81,0.00,,,0.20,Wunderground v.1.15,2014-12-18 22:37:00,
2014-12-18 16:42:00,44.6,39.1,30.18,East,82,0.0,0.0,81,0.00,,,0.20,Wunderground v.1.15,2014-12-18 22:42:00,
2014-12-18 16:47:00,44.6,39.1,30.18,East,82,0.0,0.0,81,0.00,,,0.20,Wunderground v.1.15,2014-12-18 22:47:00,
2014-12-18 16:52:00,44.5,39.0,30.18,East,82,0.0,0.0,81,0.00,,,0.20,Wunderground v.1.15,2014-12-18 22:52:00,
2014-12-18 16:57:00,44.4,39.2,30.19,East,82,0.0,0.0,82,0.00,,,0.20,Wunderground v.1.15,2014-12-18 22:57:00,
2014-12-18 17:03:00,44.3,38.8,30.19,East,82,0.0,0.0,81,0.00,,,0.20,Wunderground v.1.15,2014-12-18 23:03:00,
2014-12-18 17:07:00,44.2,39.1,30.19,East,82,0.0,0.0,82,0.00,,,0.20,Wunderground v.1.15,2014-12-18 23:07:00,
2014-12-18 17:13:00,44.2,39.1,30.18,East,82,0.0,0.0,82,0.00,,,0.20,Wunderground v.1.15,2014-12-18 23:13:00,
2014-12-18 17:17:00,44.2,39.7,30.19,East,82,0.0,0.0,84,0.00,,,0.20,Wunderground v.1.15,2014-12-18 23:17:00,
2014-12-18 17:22:00,44.1,39.3,30.19,East,82,0.0,0.0,83,0.00,,,0.20,Wunderground v.1.15,2014-12-18 23:22:00,
2014-12-18 17:27:00,44.0,39.2,30.19,East,82,0.0,0.0,83,0.00,,,0.20,Wunderground v.1.15,2014-12-18 23:27:00,
2014-12-18 17:33:00,43.9,39.1,30.19,East,82,0.0,0.0,83,0.00,,,0.20,Wunderground v.1.15,2014-12-18 23:33:00,
2014-12-18 17:38:00,43.9,39.4,30.19,East,82,0.0,0.0,84,0.00,,,0.20,Wunderground v.1.15,2014-12-18 23:38:00,
2014-12-18 17:44:00,43.9,40.0,30.20,East,82,0.0,0.0,86,0.00,,,0.20,Wunderground v.1.15,2014-12-18 23:44:00,
2014-12-18 17:49:00,43.9,40.0,30.20,East,82,0.0,0.0,86,0.00,,,0.20,Wunderground v.1.15,2014-12-18 23:49:00,
2014-12-18 17:55:00,43.8,39.9,30.20,East,82,0.0,0.0,86,0.00,,,0.20,Wunderground v.1.15,2014-12-18 23:55:00,
2014-12-18 18:00:00,43.8,40.2,30.20,East,82,0.0,0.0,87,0.00,,,0.20,Wunderground v.1.15,2014-12-19 00:00:00,
2014-12-18 18:05:00,43.8,39.9,30.20,East,82,0.0,0.0,86,0.00,,,0.20,Wunderground v.1.15,2014-12-19 00:05:00,
2014-12-18 18:10:00,43.8,39.9,30.21,East,82,0.0,0.0,86,0.00,,,0.20,Wunderground v.1.15,2014-12-19 00:10:00,
2014-12-18 18:15:00,43.7,40.1,30.21,East,82,0.0,0.0,87,0.00,,,0.20,Wunderground v.1.15,2014-12-19 00:15:00,
2014-12-18 18:20:00,43.7,40.1,30.21,East,82,0.0,0.0,87,0.00,,,0.20,Wunderground v.1.15,2014-12-19 00:20:00,
2014-12-18 18:25:00,43.6,39.7,30.21,East,82,0.0,0.0,86,0.00,,,0.20,Wunderground v.1.15,2014-12-19 00:25:00,
2014-12-18 18:31:00,43.5,39.9,30.22,East,82,0.0,0.0,87,0.00,,,0.20,Wunderground v.1.15,2014-12-19 00:31:00,
2014-12-18 18:36:00,43.4,39.8,30.22,East,82,0.0,0.0,87,0.00,,,0.20,Wunderground v.1.15,2014-12-19 00:36:00,
2014-12-18 18:41:00,43.3,39.7,30.22,East,82,0.0,0.0,87,0.00,,,0.20,Wunderground v.1.15,2014-12-19 00:41:00,
2014-12-18 18:46:00,43.3,39.7,30.22,East,82,0.0,0.0,87,0.00,,,0.20,Wunderground v.1.15,2014-12-19 00:46:00,
2014-12-18 18:51:00,43.2,39.6,30.22,East,82,0.0,0.0,87,0.00,,,0.20,Wunderground v.1.15,2014-12-19 00:51:00,
2014-12-18 18:57:00,43.1,39.8,30.22,East,82,0.0,0.0,88,0.00,,,0.20,Wunderground v.1.15,2014-12-19 00:57:00,
2014-12-18 19:02:00,43.0,39.4,30.23,East,82,0.0,0.0,87,0.00,,,0.20,Wunderground v.1.15,2014-12-19 01:02:00,
2014-12-18 19:07:00,42.9,39.6,30.23,East,82,0.0,1.0,88,0.00,,,0.20,Wunderground v.1.15,2014-12-19 01:07:00,
2014-12-18 19:13:00,42.9,39.6,30.22,East,82,0.0,0.0,88,0.00,,,0.20,Wunderground v.1.15,2014-12-19 01:13:00,
2014-12-18 19:18:00,42.8,39.5,30.22,East,82,1.0,2.0,88,0.00,,,0.20,Wunderground v.1.15,2014-12-19 01:18:00,
2014-12-18 19:23:00,42.7,39.4,30.22,East,82,0.0,1.0,88,0.00,,,0.20,Wunderground v.1.15,2014-12-19 01:23:00,
2014-12-18 19:28:00,42.6,39.0,30.22,East,82,0.0,2.0,87,0.00,,,0.20,Wunderground v.1.15,2014-12-19 01:28:00,
2014-12-18 19:34:00,42.5,39.2,30.22,East,82,0.0,1.0,88,0.00,,,0.20,Wunderground v.1.15,2014-12-19 01:34:00,
2014-12-18 19:39:00,42.5,39.2,30.22,East,82,0.0,2.0,88,0.00,,,0.20,Wunderground v.1.15,2014-12-19 01:39:00,
2014-12-18 19:44:00,42.4,39.1,30.22,East,82,0.0,2.0,88,0.00,,,0.20,Wunderground v.1.15,2014-12-19 01:44:00,
2014-12-18 19:49:00,42.4,39.1,30.22,East,82,0.0,3.0,88,0.00,,,0.20,Wunderground v.1.15,2014-12-19 01:49:00,
2014-12-18 19:54:00,42.4,39.1,30.22,East,82,0.0,2.0,88,0.00,,,0.20,Wunderground v.1.15,2014-12-19 01:54:00,
2014-12-18 19:59:00,42.4,39.1,30.22,East,82,1.0,2.0,88,0.00,,,0.20,Wunderground v.1.15,2014-12-19 01:59:00,
2014-12-18 20:05:00,42.3,39.0,30.23,East,82,0.0,2.0,88,0.00,,,0.20,Wunderground v.1.15,2014-12-19 02:05:00,
2014-12-18 20:10:00,42.3,39.0,30.23,East,82,0.0,0.0,88,0.00,,,0.20,Wunderground v.1.15,2014-12-19 02:10:00,
2014-12-18 20:15:00,42.3,39.0,30.23,East,82,0.0,0.0,88,0.00,,,0.20,Wunderground v.1.15,2014-12-19 02:15:00,
2014-12-18 20:20:00,42.2,38.9,30.23,East,82,0.0,0.0,88,0.00,,,0.20,Wunderground v.1.15,2014-12-19 02:20:00,
2014-12-18 20:25:00,42.2,38.9,30.23,East,82,0.0,1.0,88,0.00,,,0.20,Wunderground v.1.15,2014-12-19 02:25:00,
2014-12-18 20:30:00,42.2,38.9,30.23,East,82,0.0,0.0,88,0.00,,,0.20,Wunderground v.1.15,2014-12-19 02:30:00,
2014-12-18 20:36:00,42.2,38.9,30.23,East,82,0.0,1.0,88,0.00,,,0.20,Wunderground v.1.15,2014-12-19 02:36:00,
2014-12-18 20:41:00,42.1,38.8,30.23,East,82,0.0,0.0,88,0.00,,,0.20,Wunderground v.1.15,2014-12-19 02:41:00,
2014-12-18 20:46:00,42.1,38.8,30.23,East,82,0.0,1.0,88,0.00,,,0.20,Wunderground v.1.15,2014-12-19 02:46:00,
2014-12-18 20:51:00,42.1,38.8,30.23,East,82,0.0,0.0,88,0.00,,,0.20,Wunderground v.1.15,2014-12-19 02:51:00,
2014-12-18 20:56:00,42.0,38.7,30.23,East,82,0.0,1.0,88,0.00,,,0.20,Wunderground v.1.15,2014-12-19 02:56:00,
2014-12-18 21:02:00,42.0,38.7,30.23,East,82,0.0,0.0,88,0.00,,,0.20,Wunderground v.1.15,2014-12-19 03:02:00,
2014-12-18 21:07:00,42.0,38.7,30.23,East,82,0.0,0.0,88,0.00,,,0.20,Wunderground v.1.15,2014-12-19 03:07:00,
2014-12-18 21:12:00,42.0,38.7,30.24,East,82,0.0,1.0,88,0.00,,,0.20,Wunderground v.1.15,2014-12-19 03:12:00,